Location: Most
(50.5133°N, 13.6207°E)
Time: 09:47:32
(UTC+02:00)

ISS - Pass Details

Date: 20 July 2018
Orbit: 402 x 408 km, 51.6° (Epoch: 17 July)

Event Time Altitude Azimuth Distance (km) Brightness Sun altitude
Rises 02:14:01 0° 280° (W) 2,329 0.0 -17.5°
Reaches altitude 10° 02:16:06 10° 282° (WNW) 1,468 -1.0 -17.4°
Maximum altitude 02:19:24 78° 8° (N) 421 -3.7 -17.2°
Drops below altitude 10° 02:22:42 10° 96° (E) 1,469 -0.9 -17.1°
Sets 02:24:47 0° 98° (E) 2,329 0.2 -17.0°
